EJU51HZ EDDB-LFPG

Flight info

Callsign EJU51HZ
Flight time N/A
Altitude 38000
Route KISUC1N KISUC Z20 MAG Z92 ABGUS DCT LENDO DCT KUDIN DCT RAPOR DCT VEDUS
Aircraft A320/M-SDE2E3FGHIJ1RWXYZ/LB1

Departure

Time 2026-05-03 22:04
Airport Berlin Brandenburg Airport (EDDB)

Arrival

Time N/A
Airport Charles de Gaulle International Airport (LFPG)
Time Latitude Longitude Altitude Speed Heading
2026-05-03 21:35 52.36138 13.50752 155 ft 0 kts 69°
2026-05-03 21:54 52.36133 13.50730 154 ft 4 kts 69°
2026-05-03 21:54 52.36123 13.50689 155 ft 4 kts 69°
2026-05-03 21:55 52.36116 13.50656 154 ft 4 kts 80°
2026-05-03 21:55 52.36118 13.50616 154 ft 4 kts 126°
2026-05-03 21:55 52.36129 13.50599 154 ft 0 kts 159°
2026-05-03 21:59 52.36129 13.50600 154 ft 1 kts 159°
2026-05-03 22:00 52.36090 13.50623 154 ft 11 kts 159°
2026-05-03 22:00 52.35985 13.50687 154 ft 19 kts 159°
2026-05-03 22:00 52.35869 13.50763 154 ft 17 kts 158°
2026-05-03 22:00 52.35754 13.50838 154 ft 16 kts 148°
2026-05-03 22:01 52.35760 13.50981 154 ft 12 kts 66°
2026-05-03 22:01 52.35792 13.51109 154 ft 13 kts 70°
2026-05-03 22:01 52.35833 13.51283 154 ft 21 kts 69°
2026-05-03 22:01 52.35893 13.51529 154 ft 23 kts 67°
2026-05-03 22:02 52.35948 13.51763 155 ft 21 kts 69°
2026-05-03 22:02 52.35999 13.51986 155 ft 20 kts 69°
2026-05-03 22:02 52.36019 13.52163 155 ft 13 kts 125°
2026-05-03 22:02 52.35939 13.52226 155 ft 13 kts 160°
2026-05-03 22:03 52.35847 13.52270 155 ft 13 kts 189°
2026-05-03 22:03 52.35798 13.52136 155 ft 15 kts 250°
2026-05-03 22:03 52.35724 13.51825 155 ft 60 kts 248°
2026-05-03 22:03 52.35487 13.50847 155 ft 122 kts 249°
2026-05-03 22:04 52.35121 13.49296 159 ft 169 kts 247°
2026-05-03 22:04 52.34657 13.47539 759 ft 165 kts 245°
2026-05-03 22:04 52.34194 13.45800 1430 ft 166 kts 242°
2026-05-03 22:04 52.33499 13.44181 1861 ft 185 kts 228°
2026-05-03 22:05 52.32572 13.42498 2198 ft 211 kts 228°
2026-05-03 22:05 52.31578 13.40664 2946 ft 218 kts 229°
2026-05-03 22:05 52.30571 13.38779 3738 ft 222 kts 230°
2026-05-03 22:05 52.29555 13.36875 4637 ft 223 kts 230°
2026-05-03 22:06 52.28533 13.34961 5498 ft 224 kts 230°
2026-05-03 22:06 52.27505 13.33036 6376 ft 225 kts 231°
2026-05-03 22:06 52.26472 13.31103 7215 ft 227 kts 230°
2026-05-03 22:06 52.25429 13.29157 8025 ft 230 kts 230°
2026-05-03 22:07 52.24419 13.27109 8781 ft 234 kts 239°
2026-05-03 22:07 52.23699 13.24620 9253 ft 254 kts 247°
2026-05-03 22:07 52.23005 13.21862 9757 ft 269 kts 248°
2026-05-03 22:07 52.22293 13.19001 10475 ft 274 kts 247°
2026-05-03 22:08 52.21574 13.16102 11244 ft 277 kts 247°
2026-05-03 22:08 52.20844 13.13172 12053 ft 280 kts 246°
2026-05-03 22:08 52.20104 13.10223 12848 ft 282 kts 246°
2026-05-03 22:08 52.19354 13.07252 13633 ft 285 kts 246°
2026-05-03 22:09 52.18597 13.04265 14331 ft 287 kts 246°
2026-05-03 22:09 52.17829 13.01246 15001 ft 290 kts 246°
2026-05-03 22:09 52.17051 12.98198 15677 ft 292 kts 246°
2026-05-03 22:10 52.15823 12.91722 16547 ft 316 kts 255°
2026-05-03 22:10 52.15318 12.88129 16772 ft 333 kts 255°
2026-05-03 22:10 52.14805 12.84411 17301 ft 339 kts 255°
2026-05-03 22:10 52.14284 12.80644 17927 ft 343 kts 255°
2026-05-03 22:11 52.13755 12.76839 18512 ft 346 kts 255°
2026-05-03 22:11 52.13213 12.73008 19034 ft 350 kts 255°
2026-05-03 22:11 52.12662 12.69133 19583 ft 353 kts 255°
2026-05-03 22:11 52.12102 12.65221 20112 ft 357 kts 255°
2026-05-03 22:12 52.11536 12.61272 20648 ft 360 kts 255°
2026-05-03 22:12 52.10964 12.57286 21182 ft 364 kts 255°
2026-05-03 22:12 52.10386 12.53260 21705 ft 367 kts 256°
2026-05-03 22:12 52.09802 12.49205 22211 ft 371 kts 256°
2026-05-03 22:13 52.09210 12.45096 22702 ft 375 kts 256°
2026-05-03 22:13 52.08607 12.40939 23210 ft 379 kts 256°
2026-05-03 22:13 52.07996 12.36753 23687 ft 383 kts 256°
2026-05-03 22:13 52.07381 12.32526 24106 ft 386 kts 256°
2026-05-03 22:14 52.06752 12.28201 24538 ft 389 kts 256°
2026-05-03 22:14 52.06136 12.23969 24943 ft 392 kts 256°
2026-05-03 22:14 52.05504 12.19651 25354 ft 394 kts 256°
2026-05-03 22:14 52.04857 12.15263 25782 ft 396 kts 255°
2026-05-03 22:15 52.04218 12.10955 26159 ft 398 kts 255°
2026-05-03 22:15 52.03565 12.06571 26558 ft 400 kts 255°
2026-05-03 22:15 52.02908 12.02172 26935 ft 403 kts 255°
2026-05-03 22:15 52.02244 11.97739 27307 ft 405 kts 255°
2026-05-03 22:16 52.01579 11.93290 27680 ft 407 kts 255°
2026-05-03 22:16 52.00909 11.88810 28050 ft 409 kts 255°
2026-05-03 22:16 52.00226 11.84255 28416 ft 411 kts 255°
2026-05-03 22:16 51.99547 11.79735 28786 ft 413 kts 255°
2026-05-03 22:17 51.98839 11.75214 29165 ft 414 kts 254°
2026-05-03 22:17 51.98085 11.70694 29512 ft 416 kts 253°
2026-05-03 22:17 51.97303 11.66168 29845 ft 418 kts 253°
2026-05-03 22:17 51.96508 11.61619 30146 ft 420 kts 253°
2026-05-03 22:18 51.95710 11.57059 30417 ft 422 kts 253°
2026-05-03 22:18 51.94913 11.52475 30687 ft 423 kts 253°
2026-05-03 22:18 51.94118 11.47882 30953 ft 424 kts 253°
2026-05-03 22:18 51.93319 11.43265 31210 ft 426 kts 253°
2026-05-03 22:19 51.92519 11.38637 31473 ft 427 kts 253°
2026-05-03 22:19 51.91719 11.34016 31827 ft 425 kts 253°
2026-05-03 22:19 51.90920 11.29411 32188 ft 424 kts 253°
2026-05-03 22:19 51.90122 11.24826 32574 ft 422 kts 253°
2026-05-03 22:20 51.89325 11.20269 32970 ft 420 kts 252°
2026-05-03 22:20 51.88533 11.15744 33344 ft 418 kts 252°
2026-05-03 22:20 51.87738 11.11217 33706 ft 417 kts 252°
2026-05-03 22:20 51.86942 11.06726 34052 ft 415 kts 252°
2026-05-03 22:21 51.86070 11.02277 34348 ft 414 kts 250°
2026-05-03 22:21 51.85102 10.97894 34620 ft 413 kts 248°
2026-05-03 22:21 51.84072 10.93556 34870 ft 413 kts 247°
2026-05-03 22:21 51.83013 10.89241 35122 ft 413 kts 247°
2026-05-03 22:22 51.82311 10.86394 35284 ft 412 kts 247°
2026-05-03 22:22 51.81256 10.82084 35519 ft 412 kts 248°
2026-05-03 22:22 51.80215 10.77766 35757 ft 412 kts 248°
2026-05-03 22:22 51.79188 10.73446 35995 ft 412 kts 247°
2026-05-03 22:23 51.78173 10.69137 36237 ft 411 kts 248°
2026-05-03 22:23 51.77162 10.64826 36476 ft 410 kts 248°
2026-05-03 22:23 51.76150 10.60524 36706 ft 410 kts 248°
2026-05-03 22:23 51.75132 10.56230 36908 ft 409 kts 247°
2026-05-03 22:24 51.74112 10.51944 37126 ft 409 kts 247°
2026-05-03 22:24 51.73090 10.47665 37327 ft 408 kts 247°
2026-05-03 22:24 51.72065 10.43396 37551 ft 408 kts 247°
2026-05-03 22:24 51.71039 10.39137 37740 ft 408 kts 247°
2026-05-03 22:25 51.70011 10.34880 37935 ft 407 kts 247°
2026-05-03 22:25 51.67945 10.26331 38004 ft 406 kts 247°
2026-05-03 22:26 51.65906 10.17906 38019 ft 406 kts 247°
2026-05-03 22:26 51.63836 10.09410 38011 ft 404 kts 247°
2026-05-03 22:27 51.61793 10.01055 38000 ft 404 kts 247°
2026-05-03 22:27 51.59728 9.92636 38010 ft 405 kts 247°
2026-05-03 22:28 51.57659 9.84221 38014 ft 405 kts 247°
2026-05-03 22:28 51.55579 9.75806 38015 ft 405 kts 247°
2026-05-03 22:29 51.53481 9.67351 38015 ft 405 kts 247°
2026-05-03 22:29 51.51395 9.58952 38029 ft 405 kts 246°
2026-05-03 22:30 51.49303 9.50579 38021 ft 404 kts 246°
2026-05-03 22:30 51.47207 9.42228 38021 ft 403 kts 246°
2026-05-03 22:31 51.45125 9.33943 38026 ft 403 kts 246°
2026-05-03 22:31 51.43011 9.25573 38018 ft 403 kts 246°
2026-05-03 22:32 51.40905 9.17259 38010 ft 402 kts 246°
2026-05-03 22:32 51.38790 9.08960 38009 ft 402 kts 246°
2026-05-03 22:33 51.36670 9.00663 38018 ft 403 kts 246°
2026-05-03 22:33 51.34541 8.92377 38016 ft 403 kts 246°
2026-05-03 22:34 51.32412 8.84103 38014 ft 402 kts 246°
2026-05-03 22:34 51.30278 8.75837 37999 ft 402 kts 246°
2026-05-03 22:35 51.28139 8.67581 38008 ft 402 kts 246°
2026-05-03 22:35 51.25995 8.59340 38022 ft 402 kts 245°
2026-05-03 22:36 51.23850 8.51107 38012 ft 401 kts 245°
2026-05-03 22:36 51.21702 8.42888 38018 ft 401 kts 245°
2026-05-03 22:37 51.19549 8.34697 38008 ft 401 kts 245°
2026-05-03 22:37 51.17380 8.26506 38007 ft 401 kts 245°
2026-05-03 22:38 51.15211 8.18331 37998 ft 401 kts 245°
2026-05-03 22:38 51.13032 8.10158 37998 ft 401 kts 245°
2026-05-03 22:39 51.10853 8.02009 38012 ft 400 kts 244°
2026-05-03 22:39 51.08672 7.93868 38002 ft 400 kts 244°
2026-05-03 22:40 51.06490 7.85737 37984 ft 400 kts 244°
2026-05-03 22:40 51.04307 7.77618 37983 ft 400 kts 244°
2026-05-03 22:41 51.02115 7.69495 37979 ft 400 kts 244°
2026-05-03 22:41 50.99896 7.61331 37978 ft 400 kts 244°
2026-05-03 22:42 50.97697 7.53274 37997 ft 400 kts 244°
2026-05-03 22:42 50.95477 7.45165 37991 ft 401 kts 244°
2026-05-03 22:43 50.93255 7.37062 37989 ft 401 kts 244°
2026-05-03 22:43 50.91025 7.28966 37987 ft 401 kts 244°
2026-05-03 22:44 50.88777 7.20828 37985 ft 401 kts 244°
2026-05-03 22:44 50.86536 7.12744 37982 ft 401 kts 244°
2026-05-03 22:45 50.84291 7.04669 37996 ft 401 kts 243°
2026-05-03 22:45 50.82041 6.96615 37995 ft 400 kts 243°
2026-05-03 22:46 50.79787 6.88572 37996 ft 400 kts 243°
2026-05-03 22:46 50.77533 6.80550 37997 ft 399 kts 243°
2026-05-03 22:47 50.75278 6.72538 37996 ft 399 kts 243°
2026-05-03 22:47 50.73013 6.64539 37993 ft 399 kts 243°
2026-05-03 22:48 50.70741 6.56555 37985 ft 398 kts 243°
2026-05-03 22:48 50.68470 6.48597 37993 ft 398 kts 243°
2026-05-03 22:49 50.66195 6.40656 37984 ft 397 kts 243°
2026-05-03 22:49 50.63910 6.32750 37973 ft 395 kts 239°
2026-05-03 22:50 50.60625 6.25942 37969 ft 390 kts 221°
2026-05-03 22:50 50.56263 6.20882 37964 ft 390 kts 215°
2026-05-03 22:51 50.51831 6.15959 37965 ft 390 kts 215°
2026-05-03 22:51 50.47392 6.11037 37952 ft 391 kts 215°
2026-05-03 22:52 50.42947 6.06123 37965 ft 391 kts 215°
2026-05-03 22:52 50.38504 6.01220 37969 ft 391 kts 215°
2026-05-03 22:53 50.34056 5.96314 38010 ft 391 kts 215°
2026-05-03 22:53 50.29604 5.91435 38001 ft 391 kts 215°
2026-05-03 22:54 50.25153 5.86564 37998 ft 390 kts 215°
2026-05-03 22:54 50.20714 5.81692 38001 ft 390 kts 215°
2026-05-03 22:55 50.16270 5.76838 38007 ft 390 kts 215°
2026-05-03 22:55 50.11814 5.72004 38010 ft 390 kts 215°
2026-05-03 22:56 50.07363 5.67166 38015 ft 390 kts 215°
2026-05-03 22:56 50.02910 5.62333 38014 ft 390 kts 215°
2026-05-03 22:57 49.98467 5.57519 38019 ft 389 kts 215°
2026-05-03 22:57 49.94018 5.52719 38026 ft 389 kts 215°
2026-05-03 22:58 49.89566 5.47945 38029 ft 389 kts 215°
2026-05-03 22:58 49.85119 5.43175 38056 ft 389 kts 214°